This demonstration page uses our WeatherBlox Daily Observations layout. Learn more.

Left ArrowRight Arrow

40.92945, -100.16068

Hourly Observations for August 3, 2020

Temp ( °F °C ) Dew Point ( °F °C ) Humidity (%) Winds ( mph kmh ) Pressure ( in mb ) Visibility ( mi km ) Precip ( " mm )
12:15 am 00:15 Clear 59 15.1 55 13 87 87 N N/A 30.15 1021 10 16 N/A
12:35 am 00:35 Clear 58 14.4 55 13 91 91 N N/A 30.16 1021 10 16 N/A
12:55 am 00:55 Clear 57 13.8 55 12.5 92 92 N N/A 30.17 1022 10 16 N/A
1:15 am 01:15 Clear 56 13.6 55 12.6 94 94 N N/A 30.17 1022 10 16 N/A
1:35 am 01:35 Clear 56 13.5 55 12.5 94 94 N N/A 30.17 1022 10 16 N/A
1:55 am 01:55 Clear 56 13.1 54 12.2 94 94 ENE 3 6 30.17 1022 10 16 N/A
2:15 am 02:15 Clear 56 13.1 54 12.3 95 95 E 3 6 30.17 1022 10 16 N/A
2:35 am 02:35 Clear 55 13 54 12.1 94 94 N N/A 30.16 1021 10 16 N/A
2:55 am 02:55 Clear 55 12.5 53 11.6 94 94 N N/A 30.18 1022 10 16 N/A
3:15 am 03:15 Clear 54 12.1 53 11.5 96 96 NNE 3 6 30.17 1022 10 16 N/A
3:35 am 03:35 Clear 54 12.1 53 11.5 96 96 N N/A 30.17 1022 10 16 N/A
3:55 am 03:55 Clear 54 12 52 11.3 96 96 N N/A 30.17 1022 10 16 N/A
4:15 am 04:15 Clear 53 11.9 52 11.1 95 95 N N/A 30.17 1022 10 16 N/A
4:35 am 04:35 Clear 53 11.4 51 10.6 95 95 N N/A 30.17 1022 10 16 N/A
4:55 am 04:55 Clear 52 11.3 51 10.8 97 97 N N/A 30.17 1022 10 16 N/A
5:15 am 05:15 Clear 53 11.5 52 10.9 96 96 N N/A 30.17 1022 10 16 N/A
5:35 am 05:35 Clear 52 11.3 51 10.5 95 95 N N/A 30.17 1022 10 16 N/A
5:55 am 05:55 Clear 52 11 51 10.4 96 96 N N/A 30.17 1022 10 16 N/A
6:15 am 06:15 Clear 51 10.5 50 10 97 97 N N/A 30.18 1022 10 16 N/A
6:35 am 06:35 Clear 51 10.6 50 10.1 97 97 N N/A 30.19 1022 10 16 N/A
6:50 am 06:50 Sunny 51 10.6 50 10 96 96 N N/A 30.20 1023 10 16 N/A
7:15 am 07:15 Sunny 52 10.9 51 10.3 96 96 N N/A 30.19 1022 10 16 N/A
7:35 am 07:35 Sunny 53 11.8 52 11.1 96 96 N N/A 30.18 1022 10 16 N/A
7:55 am 07:55 Sunny 55 12.6 53 11.6 94 94 WNW 3 6 30.19 1022 10 16 N/A
8:15 am 08:15 Sunny 56 13.6 54 12.1 91 91 WNW 3 6 30.19 1022 10 16 N/A
8:35 am 08:35 Sunny 58 14.6 55 12.9 90 90 N N/A 30.18 1022 10 16 N/A
8:55 am 08:55 Sunny 60 15.7 56 13.6 87 87 N N/A 30.17 1022 10 16 N/A
9:15 am 09:15 Sunny 63 17.3 57 14.1 82 82 N N/A 30.16 1021 10 16 N/A
9:35 am 09:35 Sunny 66 18.8 58 14.6 77 77 S 3 6 30.14 1021 10 16 N/A
9:55 am 09:55 Sunny 68 20 58 14.5 71 71 S 7 11 30.13 1020 10 16 N/A
10:15 am 10:15 Sunny 69 20.7 58 14.2 66 66 S 7 11 30.12 1020 10 16 N/A
10:35 am 10:35 Sunny 70 21.2 58 14.3 65 65 SE 6 9 30.11 1020 10 16 N/A
10:55 am 10:55 Sunny 71 21.6 56 13.6 61 61 SSE 5 7 30.11 1020 10 16 N/A
11:15 am 11:15 Sunny 72 22.2 56 13.6 58 58 SE 9 15 30.10 1019 10 16 N/A
11:35 am 11:35 Sunny 73 22.5 55 12.6 54 54 SSE 3 6 30.10 1019 10 16 N/A
11:55 am 11:55 Mostly Cloudy 73 23 56 13.1 54 54 S 6 9 30.10 1019 10 16 N/A
12:15 pm 12:15 Mostly Cloudy 73 23 56 13.1 54 54 SSE 5 7 30.09 1019 10 16 N/A
12:35 pm 12:35 Mostly Cloudy 75 23.8 54 12.3 49 49 ESE 5 7 30.07 1018 10 16 N/A
12:55 pm 12:55 Partly Cloudy 75 23.9 53 11.5 46 46 SE 7 11 30.08 1019 10 16 N/A
1:15 pm 13:15 Mostly Cloudy 74 23.3 53 11.9 49 49 SE 5 7 30.07 1018 10 16 N/A
1:35 pm 13:35 Cloudy 74 23.5 55 12.6 50 50 ESE 6 9 30.07 1018 10 16 N/A
1:55 pm 13:55 Mostly Cloudy 75 23.8 54 12.1 48 48 SSE 7 11 30.06 1018 10 16 N/A
2:15 pm 14:15 Cloudy 75 23.8 55 12.6 50 50 SSE 6 9 30.06 1018 10 16 N/A
2:35 pm 14:35 Cloudy 76 24.2 54 12.4 48 48 S 7 11 30.06 1018 10 16 N/A
2:55 pm 14:55 Cloudy 75 24.1 54 12.4 48 48 N N/A 30.05 1017 10 16 N/A
3:15 pm 15:15 Cloudy 75 23.9 54 12.4 49 49 S 3 6 30.05 1018 10 16 N/A
3:35 pm 15:35 Cloudy 76 24.2 54 12.3 47 47 N N/A 30.04 1017 10 16 N/A
3:55 pm 15:55 Cloudy 76 24.2 54 12.3 47 47 E 3 6 30.04 1017 10 16 N/A
4:15 pm 16:15 Mostly Cloudy 76 24.5 55 12.8 48 48 SSE 5 7 30.02 1017 10 16 N/A
4:35 pm 16:35 Partly Cloudy 76 24.3 55 12.7 48 48 SE 7 11 30.03 1017 10 16 N/A
4:55 pm 16:55 Mostly Cloudy 77 24.9 55 12.7 47 47 SW 7 11 30.01 1016 10 16 N/A
5:15 pm 17:15 Cloudy 76 24.4 55 13 49 49 SSE 5 7 30.01 1016 10 16 N/A
5:35 pm 17:35 Mostly Cloudy 76 24.2 55 12.7 49 49 SE 3 6 30.01 1016 10 16 N/A
5:55 pm 17:55 Partly Cloudy 76 24.4 56 13.2 50 50 SE 7 11 30.00 1016 10 16 N/A
6:15 pm 18:15 Partly Cloudy 76 24.3 56 13.3 50 50 SSE 8 13 30.00 1016 10 16 N/A
6:35 pm 18:35 Partly Cloudy 76 24.4 56 13.4 50 50 S 5 7 29.99 1016 10 16 N/A
6:55 pm 18:55 Partly Cloudy 76 24.2 56 13.6 52 52 SE 8 13 29.99 1015 10 16 N/A
7:15 pm 19:15 Sunny 75 24 56 13.6 52 52 S 8 13 29.99 1015 10 16 N/A
7:35 pm 19:35 Partly Cloudy 75 23.8 57 14.1 55 55 S 7 11 29.99 1016 10 16 N/A
7:55 pm 19:55 Partly Cloudy 74 23.2 58 14.4 58 58 SSE 7 11 29.99 1016 10 16 N/A
8:15 pm 20:15 Sunny 73 22.6 57 13.8 58 58 SSE 6 9 30.00 1016 10 16 N/A
8:35 pm 20:35 Sunny 71 21.9 57 14 61 61 SE 6 9 30.02 1016 10 16 N/A
8:55 pm 20:55 Partly Cloudy 70 21.1 57 14 64 64 ESE 5 7 30.02 1017 10 16 N/A
9:15 pm 21:15 Mostly Cloudy 70 21.1 58 14.2 65 65 ESE 5 7 30.03 1017 10 16 N/A
9:35 pm 21:35 Cloudy 71 21.6 58 14.7 65 65 SE 5 7 30.04 1017 10 16 N/A
9:55 pm 21:55 Cloudy 71 21.6 59 14.9 66 66 SE 6 9 30.05 1018 10 16 N/A
10:15 pm 22:15 Cloudy 70 21.3 59 15.1 68 68 SE 5 7 30.05 1018 10 16 N/A
10:35 pm 22:35 Cloudy 70 21 59 14.8 68 68 SE 5 7 30.07 1018 10 16 N/A
10:55 pm 22:55 Cloudy 70 21.3 58 14.4 65 65 SE 6 9 30.07 1018 10 16 N/A
11:15 pm 23:15 Cloudy 69 20.5 59 15 71 71 SE 9 15 30.08 1019 10 16 N/A
11:35 pm 23:35 Mostly Cloudy 67 19.5 60 15.3 77 77 SE 9 15 30.09 1019 10 16 N/A
11:55 pm 23:55 Partly Cloudy 66 18.7 59 15.2 80 80 SE 10 17 30.08 1019 10 16 N/A

Powered by AerisWeather